Вернуться в каталог

JASON

АктивенНаукаLEO
NORAD 26997·PAYLOAD·🇺🇸 United States

Запущен Dec 7, 2001 с Vandenberg Space Force Base

Loading…

Ближайшие Пролёты (ближайшие 24 часа)

TLE

СвежийSource: Space-Track

Эпоха: Sep 14, 2026, 09:25 UTC

1 26997U 01055A   26257.39244211 -.00000058  00000-0  16639-4 0  9995
2 26997  66.0371 247.3318 0009411 271.4789 258.1914 12.84089371160087

Отслеживайте JASON в реальном времени с AllMySat

Download on the App Store